COSMOS 1275 DEB, 42125

Orbit data source: Space-Track

COSMOS 1275 DEB, 42125 is space debris in LEO originally from a launch on Thu, 04 Jun 1981 UTC launched from the Plesetsk Missile And Space Complex (PKMTR). Debris objects in space refer to the collection of defunct objects orbiting the Earth. Examples of debris include non-operational satellites, rocket bodies, and fragments generated from explosions, collisions, or faulty payload assembly.

Loading next visibility...
Identifier
42125, 1981-053QM
Orbit
LEO
Country
Flag of CISCIS
Related business
Manufacturer
Unknown
Mission
Spacecraft
Bus & Motor
Unknown
Mass
Unknown
Launch date (UTC)
1981-06-04 (45 years ago)
Launch vehicle
Unknown
Launch site
Plesetsk Missile And Space Complex (PKMTR)
Object type
Payload
Rocket body
Debris
Shape & HBR
Unknown shape, 0.1 m
Radar Cross Section
Small (<0.1 m²)

Expand to show TLE details & history
Last TLE update: 7 hours ago

TLE from 7 hours ago
0 COSMOS 1275 DEB
1 42125U 81053QM  26263.17369565  .00001107  00000-0  61467-3 0  9998
2 42125  82.9358 224.4822 0049146 230.0924 129.5927 14.09745904610756
Epoch: 2026-09-20T04:10Z
TLE epoch observation values (Epoch: 2026-09-20T04:10:07.304Z)
Latitude
-0.00001°
Longitude
162.88009°
Altitude
885.969 km
Speed
7.398 km/s
True Right ascension
14h 57m 55s
True Declination
0° 00' 00"
Sunlit
Object was in daylight at epoch
Visualization orbit readout
Latitude
Unknown
Longitude
Unknown
Altitude
Unknown
Speed
Unknown
Apparent Right ascension
Unknown
Apparent Declination
Unknown
Sunlit
N/A
Visualization observer readout
Local Sidereal Time
04:30:19
Azimuth
Unknown
Elevation
Unknown
Doppler factor
Unknown
Orbital elements
Apogee altitude
892.902 km
Perigee altitude
821.783 km
Semi-major axis
7,235.479 km
Eccentricity
0.00491
Inclination
82.9358°
RAAN
224.4822°
Arg. of periapsis
230.0924°
True anomaly
130.02498°
Mean anomaly
129.5927°
Eccentric anomaly
129.80901°
Mean motion
3.52649 °/min
Orbital period
102.08 mins
BSTAR
0.00061467
Loading maneuver chart data...
Computing Atmospheric mass density...

Documentation

Showing up to 5 results
|